Time,TemperatureF,DewpointF,PressureIn,WindDirection,WindDirectionDegrees,WindSpeedMPH,WindSpeedGustMPH,Humidity,HourlyPrecipIn,Conditions,Clouds,dailyrainin,SoftwareType,DateUTC
2013-04-01 00:02:00,48.7,43.1,29.97,North,1,0.0,0.0,81,0.00,,OVC,0.00,WeatherDisplay:10.37,2013-04-01 07:02:00,
2013-04-01 00:07:00,48.5,42.9,29.97,North,3,0.0,0.0,81,0.00,,OVC,0.00,WeatherDisplay:10.37,2013-04-01 07:07:00,
2013-04-01 00:12:00,48.3,43.1,29.97,North,3,0.0,0.0,82,0.00,,OVC,0.00,WeatherDisplay:10.37,2013-04-01 07:12:00,
2013-04-01 00:17:00,48.1,42.6,29.97,North,2,0.0,0.0,81,0.00,,OVC,0.00,WeatherDisplay:10.37,2013-04-01 07:17:00,
2013-04-01 00:22:00,47.9,42.3,29.97,North,1,0.0,0.0,81,0.00,,OVC,0.00,WeatherDisplay:10.37,2013-04-01 07:22:00,
2013-04-01 00:27:00,47.7,42.2,29.98,North,1,0.0,0.0,81,0.00,,OVC,0.00,WeatherDisplay:10.37,2013-04-01 07:27:00,
2013-04-01 00:32:00,47.6,42.1,29.98,North,1,0.0,0.0,81,0.00,,OVC,0.00,WeatherDisplay:10.37,2013-04-01 07:32:00,
2013-04-01 00:37:00,47.6,41.7,29.98,North,1,0.0,0.0,80,0.00,,OVC,0.00,WeatherDisplay:10.37,2013-04-01 07:37:00,
2013-04-01 00:42:00,47.6,41.7,29.98,North,1,0.0,0.0,80,0.00,,OVC,0.00,WeatherDisplay:10.37,2013-04-01 07:42:00,
2013-04-01 00:47:00,47.6,41.7,29.98,North,1,0.0,0.0,80,0.00,,OVC,0.00,WeatherDisplay:10.37,2013-04-01 07:47:00,
2013-04-01 00:52:00,47.5,41.3,29.98,North,1,0.0,0.0,79,0.00,,OVC,0.00,WeatherDisplay:10.37,2013-04-01 07:52:00,
2013-04-01 01:02:00,47.4,41.3,29.98,North,1,0.0,0.0,79,0.00,,OVC,0.00,WeatherDisplay:10.37,2013-04-01 08:02:00,
2013-04-01 01:07:00,47.5,41.3,29.98,North,1,0.0,0.0,79,0.00,,OVC,0.00,WeatherDisplay:10.37,2013-04-01 08:07:00,
2013-04-01 01:12:00,47.5,41.3,29.98,North,1,0.0,0.0,79,0.00,,OVC,0.00,WeatherDisplay:10.37,2013-04-01 08:12:00,
2013-04-01 01:17:00,47.5,41.0,29.99,North,1,0.0,0.0,78,0.00,,OVC,0.00,WeatherDisplay:10.37,2013-04-01 08:17:00,
2013-04-01 01:22:00,47.5,41.0,29.99,North,1,0.0,0.0,78,0.00,,OVC,0.00,WeatherDisplay:10.37,2013-04-01 08:22:00,
2013-04-01 01:27:00,47.4,41.2,29.99,North,1,0.0,0.0,79,0.00,,OVC,0.00,WeatherDisplay:10.37,2013-04-01 08:27:00,
2013-04-01 01:37:00,47.3,41.1,29.99,North,1,0.0,0.0,79,0.00,,OVC,0.00,WeatherDisplay:10.37,2013-04-01 08:37:00,
2013-04-01 01:42:00,47.2,41.0,29.99,North,1,0.0,0.0,79,0.00,,OVC,0.00,WeatherDisplay:10.37,2013-04-01 08:42:00,
2013-04-01 01:47:00,47.1,40.9,29.99,North,2,0.0,0.0,79,0.00,,OVC,0.00,WeatherDisplay:10.37,2013-04-01 08:47:00,
2013-04-01 01:52:00,47.0,40.9,29.99,North,1,0.0,0.0,79,0.00,,OVC,0.00,WeatherDisplay:10.37,2013-04-01 08:52:00,
2013-04-01 01:57:00,46.9,40.8,29.99,North,2,0.0,0.0,79,0.00,,OVC,0.00,WeatherDisplay:10.37,2013-04-01 08:57:00,
2013-04-01 02:02:00,46.8,40.6,29.99,North,3,0.0,0.0,79,0.00,,OVC,0.00,WeatherDisplay:10.37,2013-04-01 09:02:00,
2013-04-01 02:07:00,46.7,40.5,30.00,North,3,0.0,0.0,79,0.00,,OVC,0.00,WeatherDisplay:10.37,2013-04-01 09:07:00,
2013-04-01 02:17:00,46.5,40.6,30.00,North,1,0.0,0.0,80,0.00,,OVC,0.00,WeatherDisplay:10.37,2013-04-01 09:17:00,
2013-04-01 02:22:00,46.5,40.7,30.00,North,1,0.0,0.0,80,0.00,,OVC,0.00,WeatherDisplay:10.37,2013-04-01 09:22:00,
2013-04-01 02:27:00,46.6,41.1,30.00,North,0,0.0,0.0,81,0.00,,OVC,0.00,WeatherDisplay:10.37,2013-04-01 09:27:00,
2013-04-01 02:37:00,47.0,41.1,30.00,North,1,0.0,0.0,80,0.00,,OVC,0.00,WeatherDisplay:10.37,2013-04-01 09:37:00,
2013-04-01 02:42:00,47.1,40.9,30.00,North,3,0.0,0.0,79,0.00,,OVC,0.00,WeatherDisplay:10.37,2013-04-01 09:42:00,
2013-04-01 02:47:00,47.2,41.0,30.00,North,2,0.0,0.0,79,0.00,,OVC,0.00,WeatherDisplay:10.37,2013-04-01 09:47:00,
2013-04-01 02:52:00,47.3,41.1,30.01,North,1,0.0,0.0,79,0.00,,OVC,0.00,WeatherDisplay:10.37,2013-04-01 09:52:00,
2013-04-01 02:57:00,47.5,41.3,30.01,North,3,0.0,0.0,79,0.00,,OVC,0.00,WeatherDisplay:10.37,2013-04-01 09:57:00,
2013-04-01 03:02:00,47.6,41.1,30.01,North,3,0.0,0.0,78,0.00,,OVC,0.00,WeatherDisplay:10.37,2013-04-01 10:02:00,
2013-04-01 03:12:00,47.8,41.6,30.01,North,3,0.0,0.0,79,0.00,,OVC,0.00,WeatherDisplay:10.37,2013-04-01 10:12:00,
2013-04-01 03:22:00,47.8,41.9,30.01,North,1,0.0,0.0,80,0.00,,OVC,0.00,WeatherDisplay:10.37,2013-04-01 10:22:00,
2013-04-01 03:27:00,47.7,41.9,30.01,North,1,0.0,0.0,80,0.00,,OVC,0.00,WeatherDisplay:10.37,2013-04-01 10:27:00,
2013-04-01 03:32:00,47.7,41.5,30.01,North,5,0.0,0.0,79,0.00,,OVC,0.00,WeatherDisplay:10.37,2013-04-01 10:32:00,
2013-04-01 03:42:00,47.6,41.4,30.01,North,1,0.0,0.0,79,0.00,,OVC,0.00,WeatherDisplay:10.37,2013-04-01 10:42:00,
2013-04-01 03:47:00,47.4,41.2,30.01,North,1,0.0,0.0,79,0.00,,OVC,0.00,WeatherDisplay:10.37,2013-04-01 10:47:00,
2013-04-01 03:52:00,47.3,41.4,30.01,North,2,0.0,0.0,80,0.00,,OVC,0.00,WeatherDisplay:10.37,2013-04-01 10:52:00,
2013-04-01 03:57:00,47.1,41.2,30.01,North,5,0.0,0.0,80,0.00,,OVC,0.00,WeatherDisplay:10.37,2013-04-01 10:57:00,
2013-04-01 04:07:00,46.9,41.1,30.01,North,2,0.0,0.0,80,0.00,,OVC,0.00,WeatherDisplay:10.37,2013-04-01 11:07:00,
2013-04-01 04:12:00,46.9,41.1,30.01,North,1,0.0,0.0,80,0.00,,OVC,0.00,WeatherDisplay:10.37,2013-04-01 11:12:00,
2013-04-01 04:22:00,46.7,40.6,30.01,North,1,0.0,0.0,79,0.00,,OVC,0.00,WeatherDisplay:10.37,2013-04-01 11:22:00,
2013-04-01 04:27:00,46.6,40.8,30.01,North,3,0.0,0.0,80,0.00,,OVC,0.00,WeatherDisplay:10.37,2013-04-01 11:27:00,
2013-04-01 04:32:00,46.5,40.7,30.01,North,5,0.0,0.0,80,0.00,,OVC,0.00,WeatherDisplay:10.37,2013-04-01 11:32:00,
2013-04-01 04:37:00,46.4,40.6,30.01,North,3,0.0,0.0,80,0.00,,OVC,0.00,WeatherDisplay:10.37,2013-04-01 11:37:00,
2013-04-01 04:42:00,46.3,40.4,30.01,North,1,0.0,0.0,80,0.00,,OVC,0.00,WeatherDisplay:10.37,2013-04-01 11:42:00,
2013-04-01 04:47:00,46.1,40.3,30.01,North,2,0.0,0.0,80,0.00,,OVC,0.00,WeatherDisplay:10.37,2013-04-01 11:47:00,
2013-04-01 04:52:00,46.0,40.5,30.01,North,2,0.0,0.0,81,0.00,,OVC,0.00,WeatherDisplay:10.37,2013-04-01 11:52:00,
2013-04-01 05:02:00,45.6,40.1,30.01,North,6,0.0,0.0,81,0.00,,OVC,0.00,WeatherDisplay:10.37,2013-04-01 12:02:00,
2013-04-01 05:07:00,45.4,39.9,30.01,North,3,0.0,0.0,81,0.00,,OVC,0.00,WeatherDisplay:10.37,2013-04-01 12:07:00,
2013-04-01 05:12:00,45.3,40.1,30.01,North,5,0.0,0.0,82,0.00,,OVC,0.00,WeatherDisplay:10.37,2013-04-01 12:12:00,
2013-04-01 05:17:00,45.0,39.5,30.01,North,3,0.0,0.0,81,0.00,,OVC,0.00,WeatherDisplay:10.37,2013-04-01 12:17:00,
2013-04-01 05:22:00,44.8,39.7,30.01,North,2,0.0,0.0,82,0.00,,OVC,0.00,WeatherDisplay:10.37,2013-04-01 12:22:00,
2013-04-01 05:27:00,44.6,39.8,30.01,North,6,0.0,0.0,83,0.00,,OVC,0.00,WeatherDisplay:10.37,2013-04-01 12:27:00,
2013-04-01 05:32:00,44.4,39.6,30.01,North,3,0.0,0.0,83,0.00,,OVC,0.00,WeatherDisplay:10.37,2013-04-01 12:32:00,
2013-04-01 05:37:00,44.2,39.4,30.01,North,3,0.0,0.0,83,0.00,,OVC,0.00,WeatherDisplay:10.37,2013-04-01 12:37:00,
2013-04-01 05:47:00,44.0,39.5,30.02,North,3,0.0,0.0,84,0.00,,OVC,0.00,WeatherDisplay:10.37,2013-04-01 12:47:00,
2013-04-01 05:57:00,43.8,39.3,30.02,North,5,0.0,0.0,84,0.00,,OVC,0.00,WeatherDisplay:10.37,2013-04-01 12:57:00,
2013-04-01 06:02:00,43.7,39.5,30.02,North,4,0.0,0.0,85,0.00,,OVC,0.00,WeatherDisplay:10.37,2013-04-01 13:02:00,
2013-04-01 06:07:00,43.6,39.4,30.02,North,6,0.0,0.0,85,0.00,,OVC,0.00,WeatherDisplay:10.37,2013-04-01 13:07:00,
2013-04-01 06:17:00,43.5,39.0,30.02,North,5,0.0,0.0,84,0.00,CLR,OVC,0.00,WeatherDisplay:10.37,2013-04-01 13:17:00,
2013-04-01 06:27:00,43.5,39.3,30.03,North,3,0.0,0.0,85,0.00,CLR,OVC,0.00,WeatherDisplay:10.37,2013-04-01 13:27:00,
2013-04-01 06:32:00,43.4,39.2,30.03,North,6,0.0,0.0,85,0.00,CLR,OVC,0.00,WeatherDisplay:10.37,2013-04-01 13:32:00,
2013-04-01 06:37:00,43.4,39.2,30.03,North,6,0.0,0.0,85,0.00,CLR,OVC,0.00,WeatherDisplay:10.37,2013-04-01 13:37:00,
2013-04-01 06:47:00,43.2,39.3,30.03,North,5,0.0,0.0,86,0.00,CLR,OVC,0.00,WeatherDisplay:10.37,2013-04-01 13:47:00,
2013-04-01 06:52:00,43.2,39.3,30.04,North,3,0.0,0.0,86,0.00,CLR,OVC,0.00,WeatherDisplay:10.37,2013-04-01 13:52:00,
2013-04-01 06:57:00,43.2,39.3,30.04,North,3,0.0,0.0,86,0.00,CLR,OVC,0.00,WeatherDisplay:10.37,2013-04-01 13:57:00,
2013-04-01 07:02:00,43.1,39.2,30.04,North,3,0.0,0.0,86,0.00,CLR,OVC,0.00,WeatherDisplay:10.37,2013-04-01 14:02:00,
2013-04-01 07:07:00,43.1,39.2,30.04,North,2,0.0,0.0,86,0.00,CLR,OVC,0.00,WeatherDisplay:10.37,2013-04-01 14:07:00,
2013-04-01 07:12:00,43.1,39.2,30.04,North,4,0.0,0.0,86,0.00,CLR,OVC,0.00,WeatherDisplay:10.37,2013-04-01 14:12:00,
2013-04-01 07:22:00,43.3,39.4,30.05,North,5,0.0,0.0,86,0.00,CLR,OVC,0.00,WeatherDisplay:10.37,2013-04-01 14:22:00,
2013-04-01 07:27:00,43.3,39.4,30.05,North,6,0.0,0.0,86,0.00,CLR,OVC,0.00,WeatherDisplay:10.37,2013-04-01 14:27:00,
2013-04-01 07:37:00,44.0,40.7,30.05,North,4,0.0,0.0,88,0.00,CLR,OVC,0.00,WeatherDisplay:10.37,2013-04-01 14:37:00,
2013-04-01 07:42:00,44.3,41.6,30.05,North,3,0.0,0.0,90,0.00,CLR,OVC,0.00,WeatherDisplay:10.37,2013-04-01 14:42:00,
2013-04-01 07:52:00,44.6,42.1,30.05,North,3,0.0,0.0,91,0.00,CLR,OVC,0.00,WeatherDisplay:10.37,2013-04-01 14:52:00,
2013-04-01 08:02:00,44.9,42.7,30.05,North,4,0.0,0.0,92,0.00,CLR,OVC,0.00,WeatherDisplay:10.37,2013-04-01 15:02:00,
2013-04-01 08:07:00,45.1,42.9,30.05,North,3,0.0,0.0,92,0.00,CLR,OVC,0.00,WeatherDisplay:10.37,2013-04-01 15:07:00,
2013-04-01 08:17:00,45.6,43.7,30.06,North,3,0.0,0.0,93,0.00,CLR,OVC,0.00,WeatherDisplay:10.37,2013-04-01 15:17:00,
2013-04-01 08:27:00,46.0,44.1,30.06,North,3,0.0,0.0,93,0.00,CLR,OVC,0.00,WeatherDisplay:10.37,2013-04-01 15:27:00,
2013-04-01 08:32:00,46.1,44.2,30.06,North,2,0.0,0.0,93,0.00,CLR,OVC,0.00,WeatherDisplay:10.37,2013-04-01 15:32:00,
2013-04-01 08:37:00,46.1,44.2,30.06,North,1,0.0,0.0,93,0.00,CLR,OVC,0.00,WeatherDisplay:10.37,2013-04-01 15:37:00,
2013-04-01 08:42:00,46.2,44.3,30.06,North,2,0.0,0.0,93,0.00,CLR,OVC,0.00,WeatherDisplay:10.37,2013-04-01 15:42:00,
2013-04-01 08:47:00,46.3,44.4,30.06,North,1,0.0,0.0,93,0.00,CLR,OVC,0.00,WeatherDisplay:10.37,2013-04-01 15:47:00,
2013-04-01 08:52:00,46.4,44.5,30.06,North,3,0.0,0.0,93,0.00,CLR,OVC,0.00,WeatherDisplay:10.37,2013-04-01 15:52:00,
2013-04-01 08:57:00,46.6,44.7,30.06,North,3,0.0,0.0,93,0.00,CLR,OVC,0.00,WeatherDisplay:10.37,2013-04-01 15:57:00,
2013-04-01 09:02:00,46.8,44.9,30.07,North,5,0.0,0.0,93,0.00,CLR,OVC,0.00,WeatherDisplay:10.37,2013-04-01 16:02:00,
2013-04-01 09:07:00,47.1,45.2,30.07,North,3,0.0,0.0,93,0.00,CLR,OVC,0.00,WeatherDisplay:10.37,2013-04-01 16:07:00,
2013-04-01 09:17:00,47.6,45.7,30.07,North,1,0.0,0.0,93,0.00,CLR,OVC,0.00,WeatherDisplay:10.37,2013-04-01 16:17:00,
2013-04-01 09:22:00,47.8,45.6,30.07,North,3,0.0,0.0,92,0.00,CLR,OVC,0.00,WeatherDisplay:10.37,2013-04-01 16:22:00,
2013-04-01 09:27:00,48.1,45.9,30.07,North,6,0.0,0.0,92,0.00,CLR,OVC,0.00,WeatherDisplay:10.37,2013-04-01 16:27:00,
2013-04-01 09:37:00,48.3,45.8,30.08,North,6,0.0,0.0,91,0.00,CLR,OVC,0.00,WeatherDisplay:10.37,2013-04-01 16:37:00,
2013-04-01 09:47:00,48.6,46.1,30.08,North,4,0.0,0.0,91,0.00,CLR,OVC,0.00,WeatherDisplay:10.37,2013-04-01 16:47:00,
2013-04-01 09:52:00,48.9,46.4,30.08,North,5,0.0,0.0,91,0.00,CLR,OVC,0.00,WeatherDisplay:10.37,2013-04-01 16:52:00,
2013-04-01 09:57:00,49.1,46.6,30.08,North,5,0.0,0.0,91,0.00,CLR,OVC,0.00,WeatherDisplay:10.37,2013-04-01 16:57:00,
2013-04-01 10:07:00,49.6,46.8,30.08,North,6,0.0,0.0,90,0.00,CLR,OVC,0.00,WeatherDisplay:10.37,2013-04-01 17:07:00,
2013-04-01 10:12:00,49.9,47.1,30.08,North,4,0.0,0.0,90,0.00,CLR,OVC,0.00,WeatherDisplay:10.37,2013-04-01 17:12:00,
2013-04-01 10:17:00,50.0,46.9,30.08,North,5,0.0,0.0,89,0.00,CLR,OVC,0.00,WeatherDisplay:10.37,2013-04-01 17:17:00,
2013-04-01 10:27:00,50.4,47.3,30.08,North,5,0.0,0.0,89,0.00,CLR,OVC,0.00,WeatherDisplay:10.37,2013-04-01 17:27:00,
2013-04-01 10:32:00,50.6,47.2,30.08,North,3,0.0,0.0,88,0.00,CLR,OVC,0.00,WeatherDisplay:10.37,2013-04-01 17:32:00,
2013-04-01 10:37:00,50.9,47.4,30.08,North,1,0.0,0.0,88,0.00,CLR,OVC,0.00,WeatherDisplay:10.37,2013-04-01 17:37:00,
2013-04-01 10:42:00,51.2,47.5,30.08,North,5,0.0,0.0,87,0.00,CLR,OVC,0.00,WeatherDisplay:10.37,2013-04-01 17:42:00,
2013-04-01 10:52:00,52.1,48.4,30.09,North,4,0.0,0.0,87,0.00,CLR,OVC,0.00,WeatherDisplay:10.37,2013-04-01 17:52:00,
2013-04-01 10:57:00,52.5,48.4,30.08,North,3,0.0,0.0,86,0.00,CLR,OVC,0.00,WeatherDisplay:10.37,2013-04-01 17:57:00,
2013-04-01 11:02:00,52.8,48.1,30.09,North,2,0.0,0.0,84,0.00,CLR,OVC,0.00,WeatherDisplay:10.37,2013-04-01 18:02:00,
2013-04-01 11:07:00,53.0,47.9,30.09,North,6,0.0,0.0,83,0.00,CLR,OVC,0.00,WeatherDisplay:10.37,2013-04-01 18:07:00,
2013-04-01 11:12:00,53.3,48.9,30.09,North,6,0.0,0.0,85,0.00,CLR,OVC,0.00,WeatherDisplay:10.37,2013-04-01 18:12:00,
2013-04-01 11:22:00,54.9,50.4,30.09,North,1,0.0,0.0,85,0.00,CLR,OVC,0.00,WeatherDisplay:10.37,2013-04-01 18:22:00,
2013-04-01 11:32:00,57.6,51.8,30.09,North,5,0.0,0.0,81,0.00,CLR,OVC,0.00,WeatherDisplay:10.37,2013-04-01 18:32:00,
2013-04-01 11:37:00,58.6,51.4,30.09,North,2,0.0,0.0,77,0.00,CLR,OVC,0.00,WeatherDisplay:10.37,2013-04-01 18:37:00,
2013-04-01 11:42:00,59.3,51.8,30.09,North,3,0.0,0.0,76,0.00,CLR,OVC,0.00,WeatherDisplay:10.37,2013-04-01 18:42:00,
2013-04-01 11:47:00,60.1,52.1,30.09,North,5,0.0,0.0,75,0.00,CLR,OVC,0.00,WeatherDisplay:10.37,2013-04-01 18:47:00,
2013-04-01 11:57:00,61.3,52.2,30.09,North,5,0.0,0.0,72,0.00,CLR,OVC,0.00,WeatherDisplay:10.37,2013-04-01 18:57:00,
2013-04-01 12:02:00,61.8,51.5,30.09,North,4,0.0,0.0,69,0.00,CLR,OVC,0.00,WeatherDisplay:10.37,2013-04-01 19:02:00,
2013-04-01 12:12:00,62.0,52.5,30.09,North,4,0.0,0.0,71,0.00,CLR,OVC,0.00,WeatherDisplay:10.37,2013-04-01 19:12:00,
2013-04-01 12:17:00,62.0,50.5,30.09,North,5,0.0,0.0,66,0.00,CLR,OVC,0.00,WeatherDisplay:10.37,2013-04-01 19:17:00,
2013-04-01 12:22:00,61.4,51.1,30.09,North,5,0.0,0.0,69,0.00,CLR,OVC,0.00,WeatherDisplay:10.37,2013-04-01 19:22:00,
2013-04-01 12:32:00,62.3,51.6,30.09,North,6,0.0,0.0,68,0.00,CLR,OVC,0.00,WeatherDisplay:10.37,2013-04-01 19:32:00,
2013-04-01 12:42:00,62.6,51.9,30.09,North,5,0.0,0.0,68,0.00,CLR,OVC,0.00,WeatherDisplay:10.37,2013-04-01 19:42:00,
2013-04-01 12:52:00,63.1,52.3,30.09,North,2,0.0,0.0,68,0.00,CLR,OVC,0.00,WeatherDisplay:10.37,2013-04-01 19:52:00,
2013-04-01 12:57:00,63.1,51.1,30.09,North,1,0.0,0.0,65,0.00,CLR,OVC,0.00,WeatherDisplay:10.37,2013-04-01 19:57:00,
2013-04-01 13:07:00,62.7,50.4,30.08,North,4,0.0,0.0,64,0.00,CLR,OVC,0.00,WeatherDisplay:10.37,2013-04-01 20:07:00,
2013-04-01 13:17:00,63.3,50.0,30.08,North,1,0.0,0.0,62,0.00,CLR,OVC,0.00,WeatherDisplay:10.37,2013-04-01 20:17:00,
2013-04-01 13:22:00,62.7,50.8,30.09,North,1,0.0,0.0,65,0.00,CLR,OVC,0.00,WeatherDisplay:10.37,2013-04-01 20:22:00,
2013-04-01 13:27:00,62.6,51.5,30.09,North,1,0.0,0.0,67,0.00,CLR,OVC,0.00,WeatherDisplay:10.37,2013-04-01 20:27:00,
2013-04-01 13:32:00,63.0,51.0,30.09,North,2,0.0,0.0,65,0.00,CLR,OVC,0.00,WeatherDisplay:10.37,2013-04-01 20:32:00,
2013-04-01 13:37:00,63.0,51.1,30.09,North,1,0.0,0.0,65,0.00,CLR,OVC,0.00,WeatherDisplay:10.37,2013-04-01 20:37:00,
2013-04-01 13:42:00,63.4,51.9,30.09,North,1,0.0,0.0,66,0.00,CLR,OVC,0.00,WeatherDisplay:10.37,2013-04-01 20:42:00,
2013-04-01 13:47:00,63.7,51.2,30.09,North,1,0.0,0.0,64,0.00,CLR,OVC,0.00,WeatherDisplay:10.37,2013-04-01 20:47:00,
2013-04-01 13:52:00,64.2,51.7,30.09,North,0,0.0,0.0,64,0.00,CLR,OVC,0.00,WeatherDisplay:10.37,2013-04-01 20:52:00,
2013-04-01 13:57:00,64.4,51.1,30.09,North,1,0.0,0.0,62,0.00,CLR,OVC,0.00,WeatherDisplay:10.37,2013-04-01 20:57:00,
2013-04-01 14:07:00,64.7,50.9,30.09,North,2,0.0,0.0,61,0.00,CLR,OVC,0.00,WeatherDisplay:10.37,2013-04-01 21:07:00,
2013-04-01 14:17:00,65.1,51.3,30.08,North,2,0.0,0.0,61,0.00,CLR,OVC,0.00,WeatherDisplay:10.37,2013-04-01 21:17:00,
2013-04-01 14:22:00,65.4,52.9,30.08,North,1,0.0,0.0,64,0.00,CLR,OVC,0.00,WeatherDisplay:10.37,2013-04-01 21:22:00,
2013-04-01 14:27:00,65.6,52.2,30.08,North,1,0.0,0.0,62,0.00,CLR,OVC,0.00,WeatherDisplay:10.37,2013-04-01 21:27:00,
2013-04-01 14:32:00,65.8,52.9,30.08,North,1,0.0,0.0,63,0.00,CLR,OVC,0.00,WeatherDisplay:10.37,2013-04-01 21:32:00,
2013-04-01 14:37:00,66.0,52.2,30.08,North,2,0.0,0.0,61,0.00,CLR,OVC,0.00,WeatherDisplay:10.37,2013-04-01 21:37:00,
2013-04-01 14:42:00,66.1,50.4,30.08,North,3,0.0,0.0,57,0.00,CLR,OVC,0.00,WeatherDisplay:10.37,2013-04-01 21:42:00,
2013-04-01 14:52:00,66.6,51.8,30.08,North,1,0.0,0.0,59,0.00,CLR,OVC,0.00,WeatherDisplay:10.37,2013-04-01 21:52:00,
2013-04-01 15:02:00,66.7,50.5,30.08,North,1,0.0,0.0,56,0.00,CLR,OVC,0.00,WeatherDisplay:10.37,2013-04-01 22:02:00,
2013-04-01 15:12:00,66.3,51.1,30.08,North,1,0.0,0.0,58,0.00,CLR,OVC,0.00,WeatherDisplay:10.37,2013-04-01 22:12:00,
2013-04-01 15:17:00,65.8,50.6,30.08,North,0,0.0,0.0,58,0.00,CLR,OVC,0.00,WeatherDisplay:10.37,2013-04-01 22:17:00,
2013-04-01 15:22:00,64.9,50.2,30.08,North,1,0.0,0.0,59,0.00,CLR,OVC,0.00,WeatherDisplay:10.37,2013-04-01 22:22:00,
2013-04-01 15:27:00,63.9,49.3,30.08,North,1,0.0,0.0,59,0.00,CLR,OVC,0.00,WeatherDisplay:10.37,2013-04-01 22:27:00,
2013-04-01 15:32:00,63.3,50.9,30.08,North,1,0.0,0.0,64,0.00,CLR,OVC,0.00,WeatherDisplay:10.37,2013-04-01 22:32:00,
2013-04-01 15:42:00,62.3,50.0,30.08,North,3,0.0,0.0,64,0.00,CLR,OVC,0.00,WeatherDisplay:10.37,2013-04-01 22:42:00,
2013-04-01 15:47:00,61.9,50.0,30.08,North,3,0.0,0.0,65,0.00,CLR,OVC,0.00,WeatherDisplay:10.37,2013-04-01 22:47:00,
2013-04-01 15:52:00,61.6,50.9,30.08,North,1,0.0,0.0,68,0.00,CLR,OVC,0.00,WeatherDisplay:10.37,2013-04-01 22:52:00,
2013-04-01 15:57:00,61.4,50.3,30.08,North,3,0.0,0.0,67,0.00,CLR,OVC,0.00,WeatherDisplay:10.37,2013-04-01 22:57:00,
2013-04-01 16:02:00,61.0,49.1,30.08,North,2,0.0,0.0,65,0.00,CLR,OVC,0.00,WeatherDisplay:10.37,2013-04-01 23:02:00,
2013-04-01 16:07:00,60.7,49.3,30.08,North,1,0.0,0.0,66,0.00,CLR,OVC,0.00,WeatherDisplay:10.37,2013-04-01 23:07:00,
2013-04-01 16:12:00,60.5,49.5,30.08,North,1,0.0,0.0,67,0.00,CLR,OVC,0.00,WeatherDisplay:10.37,2013-04-01 23:12:00,
2013-04-01 16:22:00,60.3,49.3,30.08,North,1,0.0,0.0,67,0.00,CLR,OVC,0.00,WeatherDisplay:10.37,2013-04-01 23:22:00,
2013-04-01 16:27:00,60.2,49.6,30.08,North,1,0.0,0.0,68,0.00,CLR,OVC,0.00,WeatherDisplay:10.37,2013-04-01 23:27:00,
2013-04-01 16:37:00,59.8,48.8,30.08,North,1,0.0,0.0,67,0.00,CLR,OVC,0.00,WeatherDisplay:10.37,2013-04-01 23:37:00,
2013-04-01 16:42:00,59.7,49.5,30.08,North,1,0.0,0.0,69,0.00,CLR,OVC,0.00,WeatherDisplay:10.37,2013-04-01 23:42:00,
2013-04-01 16:52:00,59.5,49.7,30.08,North,1,0.0,0.0,70,0.00,CLR,OVC,0.00,WeatherDisplay:10.37,2013-04-01 23:52:00,
2013-04-01 17:02:00,59.6,49.0,30.08,North,1,0.0,0.0,68,0.00,CLR,OVC,0.00,WeatherDisplay:10.37,2013-04-02 00:02:00,
2013-04-01 17:07:00,60.0,49.4,30.08,North,1,0.0,0.0,68,0.00,CLR,OVC,0.00,WeatherDisplay:10.37,2013-04-02 00:07:00,
2013-04-01 17:17:00,61.2,49.3,30.08,North,1,0.0,0.0,65,0.00,CLR,OVC,0.00,WeatherDisplay:10.37,2013-04-02 00:17:00,
2013-04-01 17:27:00,61.4,49.5,30.08,North,1,0.0,0.0,65,0.00,CLR,OVC,0.00,WeatherDisplay:10.37,2013-04-02 00:27:00,
2013-04-01 17:32:00,61.6,49.7,30.08,North,2,0.0,0.0,65,0.00,CLR,OVC,0.00,WeatherDisplay:10.37,2013-04-02 00:32:00,
2013-04-01 17:42:00,62.4,50.0,30.08,North,1,0.0,0.0,64,0.00,CLR,OVC,0.00,WeatherDisplay:10.37,2013-04-02 00:42:00,
2013-04-01 17:47:00,62.6,49.8,30.08,North,1,0.0,0.0,63,0.00,CLR,OVC,0.00,WeatherDisplay:10.37,2013-04-02 00:47:00,
2013-04-01 17:57:00,62.8,50.4,30.08,North,1,0.0,0.0,64,0.00,CLR,OVC,0.00,WeatherDisplay:10.37,2013-04-02 00:57:00,
2013-04-01 18:02:00,62.6,50.2,30.08,North,0,0.0,0.0,64,0.00,CLR,OVC,0.00,WeatherDisplay:10.37,2013-04-02 01:02:00,
2013-04-01 18:07:00,62.2,49.5,30.08,North,2,0.0,0.0,63,0.00,CLR,OVC,0.00,WeatherDisplay:10.37,2013-04-02 01:07:00,
2013-04-01 18:17:00,61.7,50.6,30.08,North,1,0.0,0.0,67,0.00,CLR,OVC,0.00,WeatherDisplay:10.37,2013-04-02 01:17:00,
2013-04-01 18:22:00,61.6,50.1,30.09,North,2,0.0,0.0,66,0.00,CLR,OVC,0.00,WeatherDisplay:10.37,2013-04-02 01:22:00,
2013-04-01 18:27:00,61.2,50.2,30.09,North,2,0.0,0.0,67,0.00,CLR,OVC,0.00,WeatherDisplay:10.37,2013-04-02 01:27:00,
2013-04-01 18:32:00,60.6,50.0,30.09,North,2,0.0,0.0,68,0.00,CLR,OVC,0.00,WeatherDisplay:10.37,2013-04-02 01:32:00,
2013-04-01 18:37:00,60.0,50.6,30.09,North,1,0.0,0.0,71,0.00,CLR,OVC,0.00,WeatherDisplay:10.37,2013-04-02 01:37:00,
2013-04-01 18:42:00,59.3,49.9,30.09,North,1,0.0,0.0,71,0.00,CLR,OVC,0.00,WeatherDisplay:10.37,2013-04-02 01:42:00,
2013-04-01 19:17:00,56.4,47.1,30.10,North,2,0.0,0.0,71,0.00,CLR,OVC,0.00,WeatherDisplay:10.37,2013-04-02 02:17:00,
2013-04-01 19:22:00,56.1,47.2,30.10,North,1,0.0,0.0,72,0.00,CLR,OVC,0.00,WeatherDisplay:10.37,2013-04-02 02:22:00,
2013-04-01 19:32:00,55.5,47.3,30.10,North,3,0.0,0.0,74,0.00,CLR,OVC,0.00,WeatherDisplay:10.37,2013-04-02 02:32:00,
2013-04-01 19:37:00,55.1,47.0,30.10,North,1,0.0,0.0,74,0.00,CLR,OVC,0.00,WeatherDisplay:10.37,2013-04-02 02:37:00,
2013-04-01 19:47:00,54.5,47.1,30.10,North,3,0.0,0.0,76,0.00,CLR,OVC,0.00,WeatherDisplay:10.37,2013-04-02 02:47:00,
2013-04-01 19:52:00,54.1,46.7,30.10,North,2,0.0,0.0,76,0.00,CLR,OVC,0.00,WeatherDisplay:10.37,2013-04-02 02:52:00,
2013-04-01 19:57:00,53.7,46.7,30.10,North,1,0.0,0.0,77,0.00,CLR,OVC,0.00,WeatherDisplay:10.37,2013-04-02 02:57:00,
2013-04-01 20:02:00,53.4,46.7,30.10,North,1,0.0,0.0,78,0.00,,OVC,0.00,WeatherDisplay:10.37,2013-04-02 03:02:00,
2013-04-01 20:12:00,53.0,47.0,30.10,North,2,0.0,0.0,80,0.00,,OVC,0.00,WeatherDisplay:10.37,2013-04-02 03:12:00,
2013-04-01 20:17:00,52.8,46.1,30.10,North,2,0.0,0.0,78,0.00,,OVC,0.00,WeatherDisplay:10.37,2013-04-02 03:17:00,
2013-04-01 20:22:00,52.7,46.0,30.10,North,1,0.0,0.0,78,0.00,,OVC,0.00,WeatherDisplay:10.37,2013-04-02 03:22:00,
2013-04-01 20:27:00,52.5,46.2,30.11,North,1,0.0,0.0,79,0.00,,OVC,0.00,WeatherDisplay:10.37,2013-04-02 03:27:00,
2013-04-01 20:32:00,52.3,45.6,30.11,North,3,0.0,0.0,78,0.00,,OVC,0.00,WeatherDisplay:10.37,2013-04-02 03:32:00,
2013-04-01 20:37:00,52.2,45.9,30.11,North,4,0.0,0.0,79,0.00,,OVC,0.00,WeatherDisplay:10.37,2013-04-02 03:37:00,
2013-04-01 20:47:00,52.2,46.2,30.11,North,1,0.0,0.0,80,0.00,,OVC,0.00,WeatherDisplay:10.37,2013-04-02 03:47:00,
2013-04-01 20:52:00,52.3,46.6,30.11,North,4,0.0,0.0,81,0.00,,OVC,0.00,WeatherDisplay:10.37,2013-04-02 03:52:00,
2013-04-01 21:02:00,52.4,46.7,30.11,North,1,0.0,0.0,81,0.00,,OVC,0.00,WeatherDisplay:10.37,2013-04-02 04:02:00,
2013-04-01 21:07:00,52.5,46.5,30.12,North,1,0.0,0.0,80,0.00,,OVC,0.00,WeatherDisplay:10.37,2013-04-02 04:07:00,
2013-04-01 21:17:00,52.7,46.4,30.12,North,6,0.0,0.0,79,0.00,,OVC,0.00,WeatherDisplay:10.37,2013-04-02 04:17:00,
2013-04-01 21:22:00,52.9,46.6,30.12,North,4,0.0,0.0,79,0.00,,OVC,0.00,WeatherDisplay:10.37,2013-04-02 04:22:00,
2013-04-01 21:27:00,53.1,46.8,30.12,North,2,0.0,0.0,79,0.00,,OVC,0.00,WeatherDisplay:10.37,2013-04-02 04:27:00,
2013-04-01 21:37:00,53.3,47.3,30.13,North,5,0.0,0.0,80,0.00,,OVC,0.00,WeatherDisplay:10.37,2013-04-02 04:37:00,
2013-04-01 21:42:00,53.4,47.4,30.13,North,3,0.0,0.0,80,0.00,,OVC,0.00,WeatherDisplay:10.37,2013-04-02 04:42:00,
2013-04-01 21:47:00,53.4,47.4,30.13,North,1,0.0,0.0,80,0.00,,OVC,0.00,WeatherDisplay:10.37,2013-04-02 04:47:00,
2013-04-01 21:52:00,53.3,47.0,30.13,North,1,0.0,0.0,79,0.00,,OVC,0.00,WeatherDisplay:10.37,2013-04-02 04:52:00,
2013-04-01 21:57:00,53.2,46.9,30.13,North,1,0.0,0.0,79,0.00,,OVC,0.00,WeatherDisplay:10.37,2013-04-02 04:57:00,
2013-04-01 22:02:00,53.2,46.9,30.13,North,3,0.0,0.0,79,0.00,,OVC,0.00,WeatherDisplay:10.37,2013-04-02 05:02:00,
2013-04-01 22:07:00,53.1,46.8,30.13,North,3,0.0,0.0,79,0.00,,OVC,0.00,WeatherDisplay:10.37,2013-04-02 05:07:00,
2013-04-01 22:12:00,53.0,46.7,30.13,North,6,0.0,0.0,79,0.00,,OVC,0.00,WeatherDisplay:10.37,2013-04-02 05:12:00,
2013-04-01 22:17:00,52.9,46.6,30.13,North,3,0.0,0.0,79,0.00,,OVC,0.00,WeatherDisplay:10.37,2013-04-02 05:17:00,
2013-04-01 22:22:00,52.7,46.4,30.14,North,1,0.0,0.0,79,0.00,,OVC,0.00,WeatherDisplay:10.37,2013-04-02 05:22:00,
2013-04-01 22:27:00,52.5,45.8,30.14,North,1,0.0,0.0,78,0.00,,OVC,0.00,WeatherDisplay:10.37,2013-04-02 05:27:00,
2013-04-01 22:32:00,52.4,46.1,30.14,North,4,0.0,0.0,79,0.00,,OVC,0.00,WeatherDisplay:10.37,2013-04-02 05:32:00,
2013-04-01 22:37:00,52.3,45.9,30.14,North,3,0.0,0.0,79,0.00,,OVC,0.00,WeatherDisplay:10.37,2013-04-02 05:37:00,
2013-04-01 22:42:00,52.1,45.8,30.14,North,5,0.0,0.0,79,0.00,,OVC,0.00,WeatherDisplay:10.37,2013-04-02 05:42:00,
2013-04-01 22:47:00,52.0,46.0,30.14,North,4,0.0,0.0,80,0.00,,OVC,0.00,WeatherDisplay:10.37,2013-04-02 05:47:00,
2013-04-01 22:52:00,51.9,45.9,30.14,North,3,0.0,0.0,80,0.00,,OVC,0.00,WeatherDisplay:10.37,2013-04-02 05:52:00,
2013-04-01 23:02:00,51.6,45.6,30.14,North,5,0.0,0.0,80,0.00,CLR,OVC,0.00,WeatherDisplay:10.37,2013-04-02 06:02:00,
2013-04-01 23:07:00,51.5,45.9,30.14,North,5,0.0,0.0,81,0.00,CLR,OVC,0.00,WeatherDisplay:10.37,2013-04-02 06:07:00,
2013-04-01 23:17:00,51.4,45.8,30.14,North,1,0.0,0.0,81,0.00,CLR,OVC,0.00,WeatherDisplay:10.37,2013-04-02 06:17:00,
2013-04-01 23:22:00,51.2,45.6,30.15,North,2,0.0,0.0,81,0.00,CLR,OVC,0.00,WeatherDisplay:10.37,2013-04-02 06:22:00,
2013-04-01 23:27:00,51.1,45.5,30.15,North,5,0.0,0.0,81,0.00,CLR,OVC,0.00,WeatherDisplay:10.37,2013-04-02 06:27:00,
2013-04-01 23:32:00,51.0,45.7,30.15,North,6,0.0,0.0,82,0.00,CLR,OVC,0.00,WeatherDisplay:10.37,2013-04-02 06:32:00,
2013-04-01 23:37:00,50.9,45.6,30.15,North,2,0.0,0.0,82,0.00,CLR,OVC,0.00,WeatherDisplay:10.37,2013-04-02 06:37:00,
2013-04-01 23:42:00,50.8,45.8,30.15,North,2,0.0,0.0,83,0.00,CLR,OVC,0.00,WeatherDisplay:10.37,2013-04-02 06:42:00,
2013-04-01 23:47:00,50.7,45.4,30.15,North,6,0.0,0.0,82,0.00,CLR,OVC,0.00,WeatherDisplay:10.37,2013-04-02 06:47:00,
2013-04-01 23:57:00,50.4,45.5,30.16,North,5,0.0,0.0,83,0.00,CLR,OVC,0.00,WeatherDisplay:10.37,2013-04-02 06:57:00,